EW7448 Weather Reports


Display with metric or nautical units.
time (UTC)temp
F
wind
direction
speed
MPH
gust
MPH
rain 1hr
in
rain 24hr
in
rain mn
in
humidity
%
barometer
mb
20191015134541 77 350 0.0 1.0 0.00 0.00 0.00 87 1016.6
20191015133052 75 354 0.0 1.0 0.00 0.00 0.00 91 1016.6
20191015131604 74 329 0.0 1.0 0.00 0.00 0.00 92 1016.7
20191015130010 73 331 0.0 2.0 0.00 0.00 0.00 94 1016.6
20191015124509 72 297 0.0 1.0 0.00 0.00 0.00 94 1016.3
20191015123005 71 297 0.0 1.0 0.00 0.00 0.00 96 1016.3
20191015121508 70 241 0.0 1.0 0.00 0.00 0.00 97 1016.3
20191015120005 69 241 0.0 1.0 0.00 0.00 0.00 97 1016.4
20191015114744 69 241 0.0 1.0 0.00 0.00 0.00 96 1016.4
20191015113149 68 241 0.0 0.0 0.00 0.00 0.00 96 1016.3
20191015111653 68 241 0.0 0.0 0.00 0.00 0.00 96 1016.1
20191015110222 68 241 0.0 0.0 0.00 0.00 0.00 96 1016.0
20191015104628 69 241 0.0 0.0 0.00 0.00 0.00 96 1016.1
20191015103159 68 241 0.0 0.0 0.00 0.00 0.00 96 1016.1
20191015101753 69 241 0.0 1.0 0.00 0.00 0.00 97 1016.0
20191015100239 68 209 0.0 0.0 0.00 0.00 0.00 96 1015.7
20191015094649 68 209 0.0 0.0 0.00 0.00 0.00 96 1015.8
20191015093215 68 209 0.0 0.0 0.00 0.00 0.00 96 1015.6
20191015091713 69 209 0.0 0.0 0.00 0.00 0.00 96 1015.5
20191015090239 69 209 0.0 0.0 0.00 0.00 0.00 96 1015.5
20191015084655 69 209 0.0 0.0 0.00 0.00 0.00 96 1015.5
20191015083154 69 209 0.0 0.0 0.00 0.00 0.00 96 1015.5
20191015081619 69 209 0.0 0.0 0.00 0.00 0.00 95 1015.7
20191015080143 69 209 0.0 1.0 0.00 0.00 0.00 95 1015.8
20191015073145 69 209 0.0 0.0 0.00 0.00 0.00 95 1016.0
20191015071653 69 209 0.0 0.0 0.00 0.00 0.00 95 1016.1
20191015070059 69 209 0.0 0.0 0.00 0.00 0.00 95 1016.1
20191015064648 69 209 0.0 0.0 0.00 0.00 0.00 95 1016.2
20191015063148 69 209 0.0 0.0 0.00 0.00 0.00 94 1016.3
20191015061629 70 209 0.0 0.0 0.00 0.00 0.00 94 1016.5
20191015060133 70 209 0.0 0.0 0.00 0.00 0.00 95 1016.5
20191015054631 70 208 0.0 0.0 0.00 0.00 0.00 94 1016.7
20191015053103 70 208 0.0 0.0 0.00 0.00 0.00 93 1016.7
20191015051608 71 209 0.0 0.0 0.00 0.00 0.00 94 1016.7
20191015050114 71 127 0.0 0.0 0.00 0.00 0.00 93 1016.7
20191015044603 71 127 0.0 0.0 0.00 0.00 0.00 92 1016.7
20191015043042 71 127 0.0 0.0 0.00 0.00 0.00 93 1016.8
20191015041538 71 127 0.0 0.0 0.00 0.00 0.00 92 1016.9
20191015040048 72 127 0.0 0.0 0.00 0.00 0.00 92 1016.8
20191015034528 72 127 0.0 0.0 0.00 0.00 0.00 91 1016.8
20191015033044 72 127 0.0 0.0 0.00 0.00 0.00 90 1016.8
20191015031608 73 127 0.0 0.0 0.00 0.00 0.00 90 1016.9
20191015030110 74 127 0.0 0.0 0.00 0.00 0.00 89 1016.9
20191015024600 74 127 0.0 0.0 0.00 0.00 0.00 87 1016.9
20191015023028 75 126 0.0 0.0 0.00 0.00 0.00 85 1016.9
20191015021524 75 127 0.0 1.0 0.00 0.00 0.00 85 1016.8
20191015020031 75 131 0.0 1.0 0.00 0.00 0.00 84 1016.5
20191015014529 76 131 0.0 1.0 0.00 0.00 0.00 84 1016.4
20191015013053 76 129 0.0 1.0 0.00 0.00 0.00 84 1016.3
20191015011520 76 148 0.0 2.0 0.00 0.00 0.00 84 1016.4
20191015010028 76 126 0.0 1.0 0.00 0.00 0.00 84 1016.3
20191015004526 76 127 0.0 1.0 0.00 0.00 0.00 83 1016.2
20191015003035 77 129 0.0 2.0 0.00 0.00 0.00 83 1016.2
20191015001522 77 131 0.0 1.0 0.00 0.00 0.00 83 1016.0
20191015000039 77 137 0.0 1.0 0.00 0.00 0.00 83 1015.8
20191014234558 77 161 0.0 2.0 0.00 0.00 0.00 82 1015.6
20191014233015 78 148 0.0 1.0 0.00 0.00 0.00 81 1015.6
20191014231518 78 146 0.0 1.0 0.00 0.00 0.00 81 1015.7
20191014230042 79 115 1.0 2.0 0.00 0.00 0.00 79 1015.5
20191014224550 80 135 0.0 3.0 0.00 0.00 0.00 78 1015.5
20191014223018 80 139 0.0 2.0 0.00 0.00 0.00 76 1015.4
20191014221513 82 63 1.0 5.0 0.00 0.00 0.00 74 1015.3
20191014220013 83 22 1.0 6.0 0.00 0.00 0.00 72 1015.2
20191014214513 83 124 0.0 4.0 0.00 0.00 0.00 72 1015.2
20191014213013 82 50 1.0 6.0 0.00 0.00 0.00 74 1015.1
20191014211513 83 122 0.0 5.0 0.00 0.00 0.00 71 1015.1
20191014210012 83 133 1.0 6.0 0.00 0.00 0.00 73 1015.1
20191014204514 83 181 2.0 5.0 0.00 0.00 0.00 73 1015.2
20191014203018 84 66 3.0 9.0 0.00 0.00 0.00 71 1015.0
20191014201520 86 48 4.0 10.0 0.00 0.00 0.00 67 1014.9
20191014200004 84 157 2.0 13.0 0.00 0.00 0.00 70 1014.8
20191014194511 86 188 2.0 7.0 0.00 0.00 0.00 70 1014.6
20191014193002 85 3 2.0 7.0 0.00 0.00 0.00 71 1014.7
20191014191502 83 25 2.0 9.0 0.00 0.00 0.00 75 1014.7
20191014190009 84 60 4.0 10.0 0.00 0.00 0.00 74 1014.9
20191014184716 84 14 4.0 11.0 0.00 0.00 0.00 74 1015.0
20191014183443 83 42 4.0 11.0 0.00 0.00 0.00 75 1015.0
20191014181712 86 152 1.0 8.0 0.00 0.00 0.00 70 1015.3
20191014180205 85 37 3.0 10.0 0.00 0.00 0.00 69 1015.3
20191014174842 85 132 3.0 7.0 0.00 0.00 0.00 69 1015.5
20191014173137 83 37 2.0 6.0 0.00 0.00 0.00 71 1015.7
20191014171652 84 49 2.0 8.0 0.00 0.00 0.00 69 1015.8
20191014170117 85 32 3.0 9.0 0.00 0.00 0.00 67 1016.1
20191014164642 84 47 4.0 0.0 0.00 0.00 0.00 68 1016.2
20191014163208 85 75 3.0 9.0 0.00 0.00 0.00 67 1016.3
20191014161654 86 126 1.0 7.0 0.00 0.00 0.00 69 1016.5
20191014160229 85 62 4.0 6.0 0.00 0.00 0.00 70 1016.6
20191014154832 85 335 1.0 5.0 0.00 0.00 0.00 72 1016.7
20191014153142 85 46 3.0 5.0 0.00 0.00 0.00 67 1016.7
20191014151628 85 65 0.0 3.0 0.00 0.00 0.00 66 1016.7
20191014150406 86 28 0.0 2.0 0.00 0.00 0.00 66 1016.8
20191014144713 85 63 0.0 3.0 0.00 0.00 0.00 66 1016.8
20191014143135 84 44 0.0 3.0 0.00 0.00 0.00 72 1016.9
20191014141621 84 123 0.0 3.0 0.00 0.00 0.00 73 1017.0
20191014140120 83 100 0.0 2.0 0.00 0.00 0.00 78 1016.9